Location: Schommer Observatory
(40.5200°N, 74.4500°W)
Time: 20:03:37
(UTC-04:00)

ISS - Pass Details

Date: 20 May 2018
Orbit: 402 x 407 km, 51.6° (Epoch: 26 May)

Event Time Altitude Azimuth Distance (km) Brightness Sun altitude
Rises 23:17:52 0° 266° (W) 2,313 0.3 -25.3°
Reaches altitude 10° 23:20:13 10° 281° (W) 1,455 -0.6 -25.5°
Maximum altitude 23:22:54 23° 337° (NNW) 906 -1.4 -25.7°
Drops below altitude 10° 23:25:36 10° 32° (NNE) 1,458 -0.6 -25.9°
Sets 23:27:58 0° 48° (NE) 2,319 0.3 -26.1°
